Regional Weather Roundup
Issued by NWS

Home | Current Version | Previous Version | Text Only | Print | Product List | Glossary Off
Versions: 1 2 3 4 5 6 7 8 9 10 11 12 13 14 15 16 17 18 19 20 21 22 23 24 25 26 27 28 29 30 31 32 33 34 35 36 37 38 39 40 41 42 43 44 45 46 47 48 49 50

000
ASUS43 KMKX 241311
RWRWI

WISCONSIN REGIONAL WEATHER ROUNDUP
NATIONAL WEATHER SERVICE MILWAUKEE/SULLIVAN WI
800 AM CDT THU APR 24 2014

NOTE: "FAIR" INDICATES FEW OR NO CLOUDS BELOW 12,000 FEET WITH NO
SIGNIFICANT WEATHER AND/OR OBSTRUCTIONS TO VISIBILITY.

WIZ001-002-006>008-014>016-023>028-241400-
NORTHWEST WISCONSIN

CITY           SKY/WX    TMP DP  RH WIND       PRES   REMARKS
SUPERIOR ARPT  CLOUDY    35  35  99 E5        29.96S WCI  31
ASHLAND        CLOUDY    36  35  96 NE6       29.99F WCI  31
HAYWARD        CLOUDY    35  31  85 SE10      29.93F WCI  27
SIREN          LGT RAIN  38  37  95 E8        29.88S WCI  32
RICE LAKE      LGT RAIN  37  35  94 E14G21    29.90F WCI  28
LADYSMITH      LGT RAIN  36  31  83 E12       29.95F WCI  28
EAU CLAIRE     RAIN      38  36  92 E15       29.89F WCI  29
MENOMONIE      RAIN      38  37  99 E14G20    29.87F WCI  29
NEW RICHMOND   LGT RAIN  39  38  97 E14G20    29.84F WCI  30
OSCEOLA        RAIN      40  39  99 E13G18    29.87S WCI  32
$$

WIZ003>005-009-010-017-018-241400-
NORTH CENTRAL WISCONSIN

CITY           SKY/WX    TMP DP  RH WIND       PRES   REMARKS
WOODRUFF       CLOUDY    37  34  91 SE13      29.99F WCI  28
RHINELANDER    CLOUDY    34  28  79 E12       30.00F WCI  25
EAGLE RIVER    CLOUDY    35  29  78 SE8       30.00F WCI  29
LAND O LAKES   CLOUDY    38  32  78 E8        30.01F WCI  32
PHILLIPS       FLURRIES  34  30  84 SE9       29.96S WCI  27
TOMAHAWK       LGT SNOW  33  29  84 CALM      29.98F
MEDFORD        LGT RAIN  34  31  88 E9        29.95F WCI  27
MERRILL        CLOUDY    38  24  57 SE6       29.99S WCI  33
$$

WIZ029-030-035-036-043>047-241400-
CENTRAL WISCONSIN

CITY           SKY/WX    TMP DP  RH WIND       PRES   REMARKS
WAUSAU         CLOUDY    39  21  48 SE9       29.98S WCI  33
MOSINEE        CLOUDY    36  28  75 E8        30.00S WCI  29
MARSHFIELD     RAIN      36  33  89 E15G21    29.95F FOG     WCI  27
STEVENS POINT  LGT RAIN  35  31  85 E7        30.00S WCI  29
WAUPACA        LGT RAIN  39  32  75 E5        30.02S
WAUTOMA        LGT RAIN  38  37  96 E10       29.98F FOG     WCI  31
WISC RAPIDS    RAIN      37  36  96 E8        29.99R FOG     WCI  31
CAMP DOUGLAS   LGT RAIN  37  37 100 E10       29.95R WCI  30
$$

WIZ011>013-019>022-031-037>040-048>050-241400-
NORTHEAST WISCONSIN

CITY           SKY/WX    TMP DP  RH WIND       PRES   REMARKS
ANTIGO         CLOUDY    37  20  51 SE10      30.00F WCI  30
STURGEON BAY   CLOUDY    39  23  52 E8        30.08S WCI  34
GREEN BAY      CLOUDY    41  28  60 E6        30.04F
MANITOWOC      LGT RAIN  39  30  70 E6        30.05F WCI  35
APPLETON       LGT RAIN  39  30  70 SE6       30.02F WCI  35
CLINTONVILLE   FLURRIES  39  28  65 E5        30.03S
OSHKOSH        LGT RAIN  41  35  79 SE9       30.01F
$$

WIZ032>034-041-042-053>061-241400-
SOUTHWEST WISCONSIN

CITY           SKY/WX    TMP DP  RH WIND       PRES   REMARKS
LA CROSSE      RAIN      40  38  93 SE10      29.89F WCI  33
SPARTA         RAIN      37  37  97 E8        29.93S WCI  31
VIROQUA        CLOUDY    37  37 100 E16       29.88S WCI  27
BOSCOBEL       CLOUDY    40  37  89 NE6       29.90F
PRAIRIE DU CHI LGT RAIN  43  36  77 E12       29.84S
PLATTEVILLE    CLOUDY    42  36  78 E20G28    29.86F
$$

WIZ056-057-062-063-064-067-068-241400-
SOUTH CENTRAL WISCONSIN

CITY           SKY/WX    TMP DP  RH WIND       PRES   REMARKS
BARABOO/DELLS  CLOUDY    38  35  87 E12       29.95R WCI  31
LONE ROCK      LGT RAIN  41  37  86 E17       29.91F
WATERTOWN      CLOUDY    41  35  78 E12       29.96F
MADISON        CLOUDY    42  35  76 SE14      29.95F
MIDDLETON      CLOUDY    43  34  70 SE7       29.97R
MONROE         CLOUDY    42  33  68 E14G23    29.90F
JANESVILLE     CLOUDY    45  34  65 E13       29.95S
$$

WIZ051-052-058>065-066-070>072-241400-
SOUTHEAST WISCONSIN

CITY           SKY/WX    TMP DP  RH WIND       PRES   REMARKS
MILWAUKEE      CLOUDY    40  33  76 E14       30.02F WCI  32
WAUKESHA       CLOUDY    37  32  81 E10       30.01F WCI  30
MILWAUKEE/TIMM NOT AVBL
RACINE         CLOUDY    41  34  76 E13G23    30.03F
BURLINGTON     CLOUDY    40  34  77 E14       29.99F WCI  32
KENOSHA        CLOUDY    42  35  76 E13       30.01F
FOND DU LAC    LGT RAIN  40  34  79 SE13      30.01F WCI  32
SHEBOYGAN      LGT RAIN  41  31  67 SE8       30.05S
WEST BEND      RAIN      36  32  87 E10       30.01F WCI  28
JUNEAU         CLOUDY    40  32  72 E14       29.98S WCI  33
$$

LSZ147-162-241400-
LAKE SUPERIOR

STATION/POSITION TIME  TEMP    WIND        PRES    WAVE
                       AIR SEA DIR/SP/G            HT/PER
                 (UTC) (F)     (DEG/KT/KT) (MB)    (FT/S)
DEVILS ISLAND    1300   35      90/  9/ 10 1017.2F
PORT WING        1240   39      70/  3/  4 1015.2S
SAXON HARBOR     1200           CALM  /  2 1015.6F
$$

LMZ867-665-643>646-241400-
LAKE MICHIGAN

STATION/POSITION TIME  TEMP    WIND        PRES    WAVE
                       AIR SEA DIR/SP/G            HT/PER
                 (UTC) (F)     (DEG/KT/KT) (MB)    (FT/S)
NORTHPORT PIER   1200   35     120/  7/  8 1019.3S
SISTER BAY       1253   40     140/ 13/ 17   N/A
KEWAUNEE LAKESHO 1200   36      50/  6/  8 1018.9F
SHEBOYGAN LAKESH 1300   40     130/ 12/ 13 1018.3S
PORT WASHINGTON  1200   37      90/  6/  8 1018.6
MILWAUKEE LAKESH 1200   37      40/  7/  8   N/A
KENOSHA   LAKESH 1300   40     100/ 18/ 21   N/A
$$

TC  - TEMPERATURE IN CELSIUS
VSB - VISIBILITY IN STATUTE MILES
WCI - WIND CHILL INDEX
HX  - HEAT INDEX




USA.gov is the U.S. government's official web portal to all federal, state and local government web resources and services.